Location: Kra?nica
(53.4833°N, 14.6167°E)
Time: 22:07:02
(UTC+00:00)

Cosmos 1703 - Pass Details

Date: 23 May 2024
Orbit: 485 x 499 km, 82.5° (Epoch: 20 June)

Event Time Altitude Azimuth Distance (km) Brightness Sun altitude
Exits shadow 02:02:28 - 202° (SSW) 2,025 5.6 -5.9°
Reaches altitude 10° 02:03:14 10° 204° (SSW) 1,706 5.2 -5.8°
Maximum altitude 02:06:55 57° 284° (WNW) 594 3.3 -5.5°
Drops below altitude 10° 02:10:38 10° 4° (N) 1,714 6.7 -5.1°
Sets 02:12:47 0° 9° (N) 2,600 7.8 -4.9°
